Вернуться в каталог

IRIDIUM 138

АктивенСвязьPO
NORAD 43071·PAYLOAD·🇺🇸 United States

Запущен Dec 23, 2017 с Vandenberg Space Force Base

Loading…

Ближайшие Пролёты (ближайшие 24 часа)

TLE

СвежийSource: CelesTrak SupGP

Эпоха: Sep 14, 2026, 22:04 UTC

1 43071C 17083B   26257.91979167  .00003225  00000+0  11532-2 0  2577
2 43071  86.3927 284.2111 0002512  93.7098  12.4369 14.34214022    16

Отслеживайте IRIDIUM 138 в реальном времени с AllMySat

Download on the App Store